Provo, UT

1:54 AM MST on February 14, 2016 (GMT -0700)
Provo Municipal

Weather History for KPVU - October, 2014

Change the Weather History Date:

Saturday, October 18, 2014

  Actual Average Record
Temperature  
Mean Temperature 54 °F -  
Max Temperature 69 °F 60 °F 82 °F (2003)
Min Temperature 39 °F 34 °F 28 °F (1996)
Degree Days  
Heating Degree Days 11    
Growing Degree Days 4 (Base 50)    
Moisture  
Dew Point 38 °F    
Average Humidity 65    
Maximum Humidity 81    
Minimum Humidity 31    
Precipitation  
Precipitation 0.00 in - - ()
Sea Level Pressure  
Sea Level Pressure 30.07 in    
Wind  
Wind Speed 3 mph (East)    
Max Wind Speed 12 mph    
Max Gust Speed -    
Visibility 11 miles    
Events      
Averages and records for this station are not official NWS values.
T = Trace of Precipitation, MM = Missing Value Source: NWS Daily Summary

Daily Weather History Graph

Daily Weather History Graph

Search for Another Location

Airport or City:

Trip Planner

Search our weather history database for the weather conditions in past years. The results will help you decide how hot, cold, wet, or windy it might be!

Date:

Astronomy

Oct. 18, 2014 Rise Set
Actual Time 7:40 AM MDT 6:42 PM MDT
Civil Twilight 7:13 AM MDT 7:09 PM MDT
Nautical Twilight 6:41 AM MDT 7:41 PM MDT
Astronomical Twilight 6:10 AM MDT 8:12 PM MDT
Moon 2:42 AM MDT (10/18) 4:04 PM MDT (10/18)
Length of Visible Light 11h 56m
Length of Day
11h 01m
Waning Crescent, 24% of the Moon is Illuminated
Oct 18
Waning Crescent
Oct 23
New
Oct 30
First Quarter
Nov 6
Full
Nov 14
Last Quarter

Hourly Weather History & Observations

Time (MDT) Temp. Windchill Dew Point Humidity Pressure Visibility Wind Dir Wind Speed Gust Speed Precip Events Conditions
12:15 AM 46.4 °F 45.2 °F 37.4 °F 71% 30.06 in 10.0 mi South 3.5 mph - N/A   Clear
12:35 AM 46.4 °F - 39.2 °F 76% 30.06 in 10.0 mi Calm Calm - N/A   Clear
12:55 AM 44.6 °F 41.4 °F 37.4 °F 76% 30.07 in 10.0 mi East 5.8 mph - N/A   Clear
1:15 AM 46.4 °F 42.4 °F 37.4 °F 71% 30.06 in 10.0 mi East 8.1 mph - N/A   Clear
1:35 AM 46.4 °F - 37.4 °F 71% 30.06 in 10.0 mi Calm Calm - N/A   Clear
1:55 AM 46.4 °F - 39.2 °F 76% 30.06 in 10.0 mi Calm Calm - N/A   Clear
2:15 AM 44.6 °F 42.2 °F 37.4 °F 76% 30.06 in 10.0 mi South 4.6 mph - N/A   Clear
2:35 AM 46.4 °F - 39.2 °F 76% 30.06 in 10.0 mi Calm Calm - N/A   Clear
2:55 AM 44.6 °F - 37.4 °F 76% 30.06 in 10.0 mi Calm Calm - N/A   Clear
3:15 AM 46.4 °F - 39.2 °F 76% 30.06 in 10.0 mi Calm Calm - N/A   Clear
3:35 AM 46.4 °F - 37.4 °F 71% 30.06 in 10.0 mi Calm Calm - N/A   Clear
3:55 AM 42.8 °F - 37.4 °F 81% 30.06 in 10.0 mi Calm Calm - N/A   Clear
4:15 AM 42.8 °F - 37.4 °F 81% 30.05 in 10.0 mi Calm Calm - N/A   Clear
4:35 AM 42.8 °F - 35.6 °F 76% 30.05 in 10.0 mi Calm Calm - N/A   Clear
4:55 AM 46.4 °F - 35.6 °F 66% 30.05 in 10.0 mi Calm Calm - N/A   Clear
5:15 AM 44.6 °F 42.2 °F 33.8 °F 66% 30.06 in 10.0 mi SSE 4.6 mph - N/A   Clear
5:35 AM 42.8 °F 41.1 °F 37.4 °F 81% 30.06 in 10.0 mi ENE 3.5 mph - N/A   Clear
5:55 AM 42.8 °F - 35.6 °F 76% 30.07 in 10.0 mi Calm Calm - N/A   Clear
6:15 AM 42.8 °F - 33.8 °F 70% 30.07 in 10.0 mi Calm Calm - N/A   Clear
6:35 AM 41.0 °F 39.0 °F 33.8 °F 76% 30.07 in 10.0 mi SE 3.5 mph - N/A   Clear
6:52 AM 42.8 °F 39.3 °F 32.0 °F 66% 30.08 in 15.0 mi South 5.8 mph - N/A   Scattered Clouds
6:55 AM 42.8 °F 38.6 °F 32.0 °F 66% 30.07 in 10.0 mi SSW 6.9 mph - N/A   Clear
7:15 AM 44.6 °F - 37.4 °F 76% 30.07 in 10.0 mi Calm Calm - N/A   Clear
7:35 AM 42.8 °F - 33.8 °F 70% 30.08 in 10.0 mi Calm Calm - N/A   Clear
7:48 AM 42.8 °F - 35.6 °F 76% 30.08 in 15.0 mi Calm Calm - N/A   Scattered Clouds
7:55 AM 39.2 °F - 32.0 °F 75% 30.08 in 10.0 mi Calm Calm - N/A   Clear
8:15 AM 42.8 °F 41.1 °F 35.6 °F 76% 30.09 in 10.0 mi NNE 3.5 mph - N/A   Clear
8:35 AM 42.8 °F - 35.6 °F 76% 30.09 in 10.0 mi Calm Calm - N/A   Clear
8:55 AM 46.4 °F 45.2 °F 39.2 °F 76% 30.10 in 10.0 mi East 3.5 mph - N/A   Clear
9:59 AM 55.4 °F - 35.6 °F 47% 30.11 in 15.0 mi Calm Calm - N/A   Scattered Clouds
10:59 AM 57.2 °F - 39.2 °F 51% 30.11 in 15.0 mi Variable 4.6 mph - N/A   Scattered Clouds
11:57 AM 59.0 °F - 41.0 °F 51% 30.10 in 15.0 mi West 4.6 mph - N/A   Scattered Clouds
12:58 PM 64.4 °F - 42.8 °F 45% 30.09 in 15.0 mi Calm Calm - N/A   Scattered Clouds
1:59 PM 68.0 °F - 42.8 °F 40% 30.07 in 15.0 mi Calm Calm - N/A   Scattered Clouds
3:47 PM 69.8 °F - 37.4 °F 31% 30.04 in 15.0 mi Variable 4.6 mph - N/A   Scattered Clouds
4:55 PM 68.0 °F - 39.2 °F 35% 30.03 in 15.0 mi WNW 6.9 mph - N/A   Scattered Clouds
5:55 PM 66.2 °F - 39.2 °F 37% 30.03 in 15.0 mi NW 8.1 mph - N/A   Scattered Clouds
6:59 PM 60.8 °F - 44.6 °F 55% 30.03 in 15.0 mi WNW 11.5 mph - N/A   Scattered Clouds
7:59 PM 60.8 °F - 41.0 °F 48% 30.05 in 15.0 mi NW 11.5 mph - N/A   Scattered Clouds
8:47 PM 59.0 °F - 41.0 °F 51% 30.05 in 15.0 mi NNW 9.2 mph - N/A   Scattered Clouds
8:55 PM 57.2 °F - 42.8 °F 59% 30.06 in 10.0 mi NNW 5.8 mph - N/A   Clear
9:15 PM 55.4 °F - 41.0 °F 58% 30.07 in 10.0 mi NNW 8.1 mph - N/A   Clear
9:35 PM 53.6 °F - 41.0 °F 62% 30.07 in 10.0 mi NE 4.6 mph - N/A   Clear
9:55 PM 53.6 °F - 39.2 °F 58% 30.08 in 10.0 mi East 3.5 mph - N/A   Clear
10:15 PM 55.4 °F - 39.2 °F 54% 30.08 in 10.0 mi ESE 4.6 mph - N/A   Clear
10:35 PM 53.6 °F - 41.0 °F 62% 30.08 in 10.0 mi SE 6.9 mph - N/A   Clear
10:55 PM 51.8 °F - 39.2 °F 62% 30.09 in 10.0 mi ESE 4.6 mph - N/A   Clear
11:15 PM 51.8 °F - 37.4 °F 58% 30.08 in 10.0 mi SE 6.9 mph - N/A   Clear
11:35 PM 48.2 °F - 35.6 °F 62% 30.09 in 10.0 mi East 5.8 mph - N/A   Clear
11:55 PM 48.2 °F - 35.6 °F 62% 30.09 in 10.0 mi Calm Calm - N/A   Clear